This demonstration page uses our WeatherBlox Daily Observations layout. Learn more.

Left ArrowRight Arrow

Hourly Observations for September 20, 2018

Temp ( °F °C ) Dew Point ( °F °C ) Humidity (%) Winds ( mph kmh ) Pressure ( in mb ) Visibility ( mi km ) Precip ( " mm )
12:53 am 00:53 Clear 78 25.6 64 17.8 62 62 S 13 20 29.73 1007 10 16 0.00 0.00
1:53 am 01:53 Clear 77 25 65 18.3 66 66 S 13 20 29.71 1006 10 16 0.00 0.00
2:53 am 02:53 Clear 76 24.4 65 18.3 69 69 S 10 17 29.70 1006 10 16 0.00 0.00
3:53 am 03:53 Clear 75 23.9 65 18.3 71 71 S 12 19 29.69 1006 10 16 0.00 0.00
4:53 am 04:53 Clear 74 23.3 65 18.3 74 74 S 12 19 29.69 1005 10 16 0.00 0.00
5:53 am 05:53 Mostly Clear 74 23.3 65 18.3 74 74 S 9 15 29.68 1005 10 16 0.00 0.00
6:53 am 06:53 Clear 73 22.8 65 18.3 76 76 S 8 13 29.69 1005 10 16 0.00 0.00
7:53 am 07:53 Sunny 73 22.8 65 18.3 76 76 S 10 17 29.69 1005 10 16 0.00 0.00
8:53 am 08:53 Sunny 76 24.4 65 18.3 69 69 S 13 20 29.69 1005 10 16 0.00 0.00
9:53 am 09:53 Sunny 79 26.1 65 18.3 62 62 S 16 26 29.69 1005 10 16 0.00 0.00
10:53 am 10:53 Sunny 81 27.2 65 18.3 58 58 SSW 18 30 29.68 1005 10 16 0.00 0.00
11:53 am 11:53 Sunny 84 28.9 66 18.9 55 55 SSW 18 30 29.67 1005 10 16 0.00 0.00
12:53 pm 12:53 Mostly Sunny 87 30.6 66 18.9 50 50 SW 17 28 29.65 1004 10 16 0.00 0.00
1:53 pm 13:53 Partly Cloudy 87 30.6 66 18.9 50 50 SW 14 22 29.65 1004 10 16 0.00 0.00
2:53 pm 14:53 Mostly Sunny 87 30.6 65 18.3 48 48 W 18 30 29.65 1004 10 16 0.00 0.00
3:53 pm 15:53 Mostly Cloudy 85 29.4 66 18.9 53 53 WNW 15 24 29.65 1004 10 16 0.00 0.00
4:53 pm 16:53 Partly Cloudy 84 28.9 65 18.3 53 53 WNW 14 22 29.64 1004 10 16 0.00 0.00
5:53 pm 17:53 Cloudy with Thunderstorms 76 24.4 66 18.9 72 72 NNW 9 15 29.66 1004 5 8 0.05 1.27
6:18 pm 18:18 Cloudy with Nearby Thunderstorms 74 23.3 65 18.3 74 74 SW 5 7 29.68 1005 10 16 0.01 0.25
6:26 pm 18:26 Cloudy with Light Rain 74 23.3 65 18.3 74 74 SW 6 9 29.68 1005 8 13 0.02 0.51
6:53 pm 18:53 Cloudy with Light Rain 71 21.7 66 18.9 84 84 SW 6 9 29.75 1007 6 10 0.06 1.52
7:53 pm 19:53 Cloudy with Rain 69 20.6 65 18.3 87 87 WNW 8 13 29.77 1008 6 10 0.18 4.57
8:53 pm 20:53 Mostly Clear 67 19.4 64 17.8 91 91 SSW 7 11 29.78 1008 10 16 0.01 0.25
9:53 pm 21:53 Mostly Cloudy 67 19.4 65 18.3 93 93 NW 9 15 29.84 1011 10 16 0.00 0.00
10:20 pm 22:20 Partly Cloudy 68 20 66 19 94 94 N 7 11 29.85 1011 10 16 0.00 0.00
10:53 pm 22:53 Clear 67 19.4 63 17.2 87 87 NNW 9 15 29.89 1012 10 16 0.00 0.00
11:53 pm 23:53 Mostly Cloudy 65 18.3 61 16.1 87 87 NNW 15 24 29.94 1014 10 16 0.00 0.00

Powered by AerisWeather